TIME,DELAY(SENSOR),PRES,OXYGEN,RAWTEMP,T(OPTODE),TCPHASE,FLUOR,BETA(BETA700),BETA(BETA412),BETA(BETA440),CDOM,C(CSC),ED(ED411.90),ED(ED443.80),ED(ED489.40),ED(ED554.70),LU(LU412.20),LU(LU443.80),LU(LU489.40),LU(LU555.00),COMP,TILTX,TILTY,CHECK
1359759192,5805,873.0999755859375000,170.5843048095703000,456.7746887207031000,8.8646249771118160,39.1207008361816400,58,122,95,78,81,12031,2146960722,2147516818,2147292763,2147506459,2147090541,2146927232,2147709705,2147123638,3082,-1,9,15157
1359762788,5805,979.8699951171875000,209.1132965087890600,518.0700073242188000,6.9677758216857910,37.6659889221191400,58,124,98,79,81,12026,2146959963,2147515913,2147298322,2147517622,2147089051,2146921865,2147725302,2147119881,1313,-1,9,16866
1359766388,5809,1000.7199707031250000,223.9232025146484400,531.0402832031250000,6.5631642341613770,37.0537910461425800,58,124,98,79,80,12027,2146959552,2147515611,2147297910,2147519561,2147090843,2146918985,2147722304,2147122578,44,-1,9,18567
1359769988,5806,998.3800048828125000,228.7971954345703000,534.4804077148438000,6.4556407928466800,36.8494606018066400,59,123,97,77,81,12026,2146959341,2147517668,2147299373,2147522240,2147088594,2146922112,2147726976,2147122925,2907,-1,9,47027
1359773588,5804,1004.7999877929688000,230.3907928466797000,535.6279296875000000,6.4197540283203125,36.7849693298339840,59,124,97,80,80,12025,2146960109,2147515218,2147298340,2147521984,2147091657,2146917019,2147723236,2147123584,3069,-1,9,55492
1359777188,5803,1005.5700073242188000,231.1087036132812500,536.9857788085938000,6.3772768974304200,36.7707214355468750,60,124,97,79,80,12020,2146962550,2147518491,2147301403,2147522139,2147089709,2146919798,2147722368,2147123227,653,-1,9,56488
1359780788,5807,1007.1099853515625000,229.8713073730468800,539.1715698242188000,6.3088698387146000,36.8762588500976560,60,126,98,78,81,12022,2146962020,2147515382,2147298075,2147522038,2147087972,2146915693,2147724333,2147122322,3212,-1,9,47095
1359784388,5805,1012.1099853515625000,233.2138061523437500,537.9774169921875000,6.3462491035461430,36.6769485473632800,61,122,99,78,80,12023,2146963693,2147514166,2147301101,2147520475,2147090148,2146920201,2147726473,2147121142,2987,-1,9,21462
1359787988,5802,1015.3300170898438000,231.2124023437500000,537.0363769531250000,6.3756937980651855,36.7658195495605500,61,120,99,81,81,12016,2146959405,2147512320,2147296694,2147520237,2147089133,2146917970,2147720475,2147122368,3420,-1,9,14706
1359791588,5804,1017.6799926757812000,230.1210937500000000,536.3944702148438000,6.3957748413085940,36.8129501342773440,60,124,99,78,80,12019,2146962294,2147515081,2147299062,2147522011,2147085924,2146925284,2147725723,2147121819,3551,-1,9,36277
1359795188,5805,1011.5499877929688000,230.3112030029297000,538.6970214843750000,6.3237271308898930,36.8444099426269500,59,120,100,84,81,12017,2146962505,2147518409,2147301028,2147523410,2147089481,2146921526,2147726180,2147124580,2767,-1,8,43033
1359798788,5805,1015.7100219726562000,230.9369964599609400,537.3842163085938000,6.3648109436035160,36.7873191833496100,60,121,98,79,80,12018,2146961444,2147516233,2147300150,2147523456,2147090075,2146919862,2147726354,2147121508,3473,-1,9,16665
1359802388,5806,1017.2700195312500000,232.1405029296875000,538.1621704101562000,6.3404641151428220,36.7368507385253900,60,121,98,79,80,12020,2146962349,2147519232,2147298441,2147522221,2147090285,2146925293,2147722523,2147120448,2921,-1,9,53348
1359805988,5810,1020.7399902343750000,234.1627960205078000,538.3931274414062000,6.3332390785217285,36.6344184875488300,60,123,100,78,82,12016,2146960155,2147513024,2147296694,2147519332,2147093467,2146920064,2147727049,2147121801,3588,-1,9,1951
1359809588,5807,1017.1199951171875000,233.3681945800781200,539.1146240234375000,6.3106541633605960,36.6897697448730500,60,122,98,78,80,12016,2146960877,2147517046,2147296448,2147521810,2147090825,2146924059,2147725650,2147121161,16,-1,9,26030
1359813188,5806,1017.5599975585938000,233.2913055419922000,539.2739257812500000,6.3056697845458980,36.6959800720214840,60,123,98,79,81,12013,2146961974,2147512795,2147301476,2147522523,2147087643,2146920768,2147720795,2147122084,473,-1,9,15270
1359816788,5806,1020.8499755859375000,233.5664978027343800,538.1282958984375000,6.3415260314941410,36.6613693237304700,59,122,98,79,81,12012,2146960804,2147519597,2147298569,2147524443,2147091428,2146921938,2147726893,2147122340,203,-1,9,32134
1359820388,5805,1022.9199829101562000,232.6139984130859400,537.9755859375000000,6.3463039398193360,36.7088699340820300,60,121,97,79,81,12013,2146961508,2147518016,2147296548,2147525531,2147088228,2146921600,2147724937,2147124141,3132,-1,9,20690
1359823988,5808,1017.8800048828125000,231.6206054687500000,538.2971801757812000,6.3362388610839840,36.7668609619140600,58,121,97,78,81,12012,2146963821,2147518628,2147298880,2147518317,2147087881,2146918034,2147728978,2147120722,790,-1,9,11363
1359827588,5804,1020.2199707031250000,234.0326995849609400,539.1162719726562000,6.3105998039245605,36.6540107727050800,59,123,99,79,80,12012,2146961792,2147514450,2147301330,2147521188,2147088905,2146920310,2147728566,2147122294,3047,-1,9,45975
1359831188,5810,1022.8400268554688000,232.4151000976562500,538.9852905273438000,6.3147029876708980,36.7373504638671900,59,124,98,80,80,12010,2146961782,2147517449,2147298944,2147523382,2147090194,2146917723,2147730240,2147124763,95,-1,8,17378
1359834788,5803,1017.7000122070312000,231.1291961669922000,539.8311157226562000,6.2882227897644040,36.8205909729003900,59,120,99,79,80,12008,2146962578,2147514843,2147300854,2147521344,2147089462,2146915401,2147725568,2147120969,3540,0,9,41883
1359838388,5806,1018.3699951171875000,234.1699981689453000,540.9368286132812000,6.2535991668701170,36.6800193786621100,59,122,98,79,81,12009,2146959497,2147516580,2147300443,2147521609,2147090706,2146918153,2147726198,2147121645,3039,-1,9,28156
1359841988,5805,1014.7999877929688000,235.9667968750000000,541.4575805664062000,6.2372889518737790,36.5954704284668000,60,122,98,79,81,12007,2146959680,2147515968,2147299977,2147525092,2147091529,2146916745,2147724224,2147122002,3167,-1,9,21194
1359845588,5805,1013.1300048828125000,236.8545074462890600,542.0886230468750000,6.2175240516662600,36.5606803894043000,59,123,100,79,81,12010,2146962633,2147517750,2147299264,2147521170,2147090084,2146918857,2147726171,2147123547,3564,-1,9,63148
1359849188,5808,1013.6699829101562000,236.8838958740234400,543.5772705078125000,6.1708769798278810,36.5859794616699200,60,122,97,79,80,12010,2146958829,2147514550,2147301824,2147525778,2147088941,2146920813,2147728566,2147123117,60,-1,9,33098
1359852788,5806,1010.7500000000000000,235.8733062744140600,544.5313110351562000,6.1409797668457030,36.6557502746582000,59,122,96,77,81,12006,2146961554,2147516562,2147299328,2147521115,2147089334,2146919268,2147726116,2147119835,3435,-1,9,64235
1359856388,5809,1014.2000122070312000,241.3733978271484400,545.9255981445312000,6.0972647666931150,36.3974304199218750,59,125,97,79,80,12010,2146960585,2147517650,2147300470,2147524342,2147088466,2146916598,2147723620,2147117037,41,-1,8,21191
1359859988,5805,1021.1099853515625000,238.1499023437500000,542.9669189453125000,6.1900038719177250,36.5089683532714840,59,126,99,80,80,12002,2146962038,2147515291,2147297810,2147521444,2147088566,2146923611,2147727232,2147119725,3487,-1,9,272
1359863588,5805,1017.1199951171875000,237.7736968994140600,542.3441772460938000,6.2095170021057130,36.5175514221191400,58,124,98,78,80,12005,2146958345,2147517568,2147299300,2147521984,2147091620,2146920832,2147726436,2147119716,656,-1,8,3506
1359867188,5807,1019.4000244140625000,237.4515075683593800,542.7642822265625000,6.1963520050048830,36.5414199829101560,59,128,98,79,81,12005,2146961737,2147515867,2147299611,2147521572,2147092022,2146921974,2147724589,2147122148,277,-1,9,42596
1359870788,5805,1023.7000122070312000,234.7758026123047000,540.1206054687500000,6.2791600227355960,36.6335792541503900,59,147,98,78,80,12002,2146960320,2147519387,2147300041,2147524882,2147090541,2146917970,2147726957,2147121325,3280,-1,9,36797
1359874388,5807,1017.5800170898438000,236.3905944824218800,541.3483886718750000,6.2407088279724120,36.5714187622070300,59,124,99,79,80,12002,2146960649,2147514742,2147300937,2147522889,2147090148,2146916160,2147725266,2147125284,580,-1,9,49027
1359877988,5805,1017.5300292968750000,238.0812988281250000,542.6719970703125000,6.1992449760437010,36.5076789855957000,59,125,97,80,81,12003,2146959405,2147514102,2147300653,2147522121,2147088722,2146921773,2147732525,2147122669,946,-1,9,57297
1359881588,5805,1016.4000244140625000,237.5583038330078000,543.8126220703125000,6.1635041236877440,36.5552787780761700,59,123,98,79,81,12000,2146961453,2147515392,2147299776,2147520512,2147091382,2146921408,2147726646,2147124370,3413,-1,9,45057
1359885188,5804,1021.7800292968750000,238.2677001953125000,542.8187255859375000,6.1946492195129395,36.5005416870117200,59,125,97,78,80,11989,2146964489,2147515264,2147299766,2147521929,2147091693,2146917824,2147727497,2147120512,3344,-1,9,44862
1359888788,5807,1023.1699829101562000,236.6197052001953000,541.2191772460938000,6.2447571754455570,36.5567817687988300,59,125,97,80,81,11974,2146960146,2147516187,2147300388,2147521965,2147090276,2146919853,2147722660,2147123730,522,-1,9,42947
1359892388,5807,1020.2299804687500000,236.0646972656250000,541.0618896484375000,6.2496809959411620,36.5828590393066400,59,125,98,79,80,11971,2146959104,2147515355,2147302912,2147520320,2147088475,2146922230,2147725028,2147122057,324,-1,9,14889
1359895988,5806,1025.6400146484375000,236.6071929931640600,541.3798828125000000,6.2397232055664060,36.5607490539550800,59,125,97,78,81,11970,2146963721,2147515894,2147298989,2147518710,2147087277,2146921618,2147725750,2147123922,157,-1,9,5759
1359899588,5807,1024.4799804687500000,236.6042022705078000,541.3654785156250000,6.2401728630065920,36.5602607727050800,60,125,97,78,81,11968,2146962276,2147513874,2147303808,2147523456,2147090861,2146919945,2147726509,2147123446,457,-1,9,2513
1359902755,5807,1025.7099609375000000,235.9474945068359400,540.6469116210938000,6.2626781463623050,36.5816497802734400,59,126,97,78,81,11994,2146965952,2147518107,2147295606,2147519689,2147093458,2146912841,2147729435,2147123547,761,-1,9,9210
